Location: ???????
(55.5917°N, 37.3214°E)
Time: 18:06:24
(UTC+00:00)

IRS-P3 - Pass Details

Date: 14 July 2020
Orbit: 814 x 818 km, 98.8° (Epoch: 07 August)

Event Time Altitude Azimuth Distance (km) Brightness Sun altitude
Rises 00:05:55 0° 17° (NNE) 3,356 9.1 -6.5°
Reaches altitude 10° 00:08:17 10° 21° (NNE) 2,421 8.2 -6.3°
Maximum altitude 00:13:38 67° 104° (ESE) 889 4.5 -5.9°
Drops below altitude 10° 00:18:56 10° 187° (S) 2,406 6.1 -5.4°
Enters shadow 00:20:42 - 189° (S) 3,105 6.6 -5.3°
